Peary Spirit — C6YM3 — position and weather

sailwx.info

Track history (hours):
 
Tides and Currents Weather Stations Pressure Air Temp Water Temp Dewpoint Dewpoint Depression Visibility Wind Speed Wind Dir Waves Ship Positions

Peary Spirit

Last reported at 2014-Oct-20 22:29 UTC. Time now 2014-Oct-20 22:52 UTC.
Position N 53°33' E 008°10'.

Length 249 m; draft 12.9 m.

Type: Ship (hazmat cat A). MMSI: 311027600.

Date/timePositionNaut miles runAvg speedWind from/ knotsBaromVisibWave heightAir tempDewpointWater temp
2014-Oct-20 22:29N 53°33' E 008°10'0 0.0
2014-Oct-20 21:32N 53°33' E 008°10'0 0.0
2014-Oct-20 20:32N 53°33' E 008°10'0 0.0
2014-Oct-20 19:32N 53°33' E 008°10'0 0.0
2014-Oct-20 18:32N 53°33' E 008°10'0 0.0
2014-Oct-20 17:32N 53°33' E 008°10'0 0.0
2014-Oct-20 16:32N 53°33' E 008°10'0 0.0
2014-Oct-20 15:29N 53°33' E 008°10'0 0.0
2014-Oct-20 14:29N 53°33' E 008°10'1 1.2
2014-Oct-20 13:34N 53°35' E 008°10'7 7.2
2014-Oct-20 12:34N 53°41' E 008°05'8 8.2
2014-Oct-20 11:34N 53°48' E 007°59'9 8.9
2014-Oct-20 10:33N 53°53' E 007°45'9 8.8
2014-Oct-20 09:34N 53°59' E 007°36'6 5.9
2014-Oct-20 08:33N 54°05' E 007°31'6 6.2
2014-Oct-20 07:33N 54°10' E 007°27'1211.9
2014-Oct-20 06:33N 54°21' E 007°19'1313.1
2014-Oct-20 05:34N 54°32' E 007°06'1413.2
2014-Oct-20 04:31N 54°43' E 006°53'1212.7
2014-Oct-20 03:33N 54°54' E 006°42'1312.6
2014-Oct-20 02:33N 55°06' E 006°35'1312.6
2014-Oct-20 01:32N 55°18' E 006°27'1312.6
2014-Oct-20 00:32N 55°30' E 006°19'  
2014-Oct-11 11:09N 54°15' E 004°36'711.9
2014-Oct-11 10:33N 54°08' E 004°38'1111.3
2014-Oct-11 09:33N 53°57' E 004°38'1212.0
2014-Oct-11 08:32N 53°48' E 004°25'1212.0
2014-Oct-11 07:32N 53°40' E 004°09'1312.9
2014-Oct-11 06:32N 53°33' E 003°51'5213.1
2014-Oct-11 02:33N 52°46' E 003°12'4310.8
2014-Oct-10 22:33N 52°06' E 003°38'  
Track history (hours):
 
Tides and Currents Weather Stations Pressure Air Temp Water Temp Dewpoint Dewpoint Depression Visibility Wind Speed Wind Dir Waves Ship Positions

Peary Spirit

Last reported at 2014-Oct-20 22:29 UTC. Time now 2014-Oct-20 22:52 UTC.
Position N 53°33' E 008°10'.

Length 249 m; draft 12.9 m.

Type: Ship (hazmat cat A). MMSI: 311027600.

Date/timePositionNaut miles runAvg speedWind from/ knotsBaromVisibWave heightAir tempDewpointWater temp
2014-Oct-20 22:29N 53°33' E 008°10'0 0.0
2014-Oct-20 21:32N 53°33' E 008°10'0 0.0
2014-Oct-20 20:32N 53°33' E 008°10'0 0.0
2014-Oct-20 19:32N 53°33' E 008°10'0 0.0
2014-Oct-20 18:32N 53°33' E 008°10'0 0.0
2014-Oct-20 17:32N 53°33' E 008°10'0 0.0
2014-Oct-20 16:32N 53°33' E 008°10'0 0.0
2014-Oct-20 15:29N 53°33' E 008°10'0 0.0
2014-Oct-20 14:29N 53°33' E 008°10'1 1.2
2014-Oct-20 13:34N 53°35' E 008°10'7 7.2
2014-Oct-20 12:34N 53°41' E 008°05'8 8.2
2014-Oct-20 11:34N 53°48' E 007°59'9 8.9
2014-Oct-20 10:33N 53°53' E 007°45'9 8.8
2014-Oct-20 09:34N 53°59' E 007°36'6 5.9
2014-Oct-20 08:33N 54°05' E 007°31'6 6.2
2014-Oct-20 07:33N 54°10' E 007°27'1211.9
2014-Oct-20 06:33N 54°21' E 007°19'1313.1
2014-Oct-20 05:34N 54°32' E 007°06'1413.2
2014-Oct-20 04:31N 54°43' E 006°53'1212.7
2014-Oct-20 03:33N 54°54' E 006°42'1312.6
2014-Oct-20 02:33N 55°06' E 006°35'1312.6
2014-Oct-20 01:32N 55°18' E 006°27'1312.6
2014-Oct-20 00:32N 55°30' E 006°19'  
2014-Oct-11 11:09N 54°15' E 004°36'711.9
2014-Oct-11 10:33N 54°08' E 004°38'1111.3
2014-Oct-11 09:33N 53°57' E 004°38'1212.0
2014-Oct-11 08:32N 53°48' E 004°25'1212.0
2014-Oct-11 07:32N 53°40' E 004°09'1312.9
2014-Oct-11 06:32N 53°33' E 003°51'5213.1
2014-Oct-11 02:33N 52°46' E 003°12'4310.8
2014-Oct-10 22:33N 52°06' E 003°38'  

Dump ship's entire track history